Tracking 28790 objects as of 19-Apr-2024
HD Live streaming from Space Station
objects crossing your sky now

SHIYAN 13 (SY-13)

Track SHIYAN 13 (SY-13) now!
10-day predictions


NORAD ID: 51102
Int'l Code: 2022-004A
Perigee: 398.4 km
Apogee: 1,313.2 km
Inclination: 98.5 °
Period: 101.9 minutes
Semi major axis: 7226 km
RCS: Unknown
Launch date: January 17, 2022
Source: People's Republic of China (PRC)
Launch site: Taiyaun Space Center, China (TSC)
Your satellite tracking list
Your tracking list is empty




NASA's NSSDC Master Catalog

Two Line Element Set (TLE):
1 51102U 22004A   24109.85174338  .00005777  00000-0  40851-3 0  9999
2 51102  98.5380 147.5195 0632936 327.6207  28.7553 14.13144627115484
Source of the keplerian elements: AFSPC